Погода в Упше

Россия / Республика Марий Эл     56°52′00″N   47°43′55″E
темп.,
°C
ветер,
м/с
пор.,
м/с
влажн.,
%
обл.,
%
осадки,
мм/ч
давл.,
гПа
погр.,
м
2 июля, сб
сб200:00+10ссв3108946 0.0 1018190
03:00+9ссв378578 0.0 1018129
06:00+13ссв377069 0.0 1018218
09:00+19ссв35505 0.0 1017898
12:00+22ссв34415 0.0 10161929
15:00+23ссв35417 0.0 10152140
18:00+21с245612 0.0 1014515
21:00+15в3577100 0.1 101488
3 июля, вс
вс300:00+14ююз129560 1.4 101427
03:00+13с239797 1.4 101397
06:00+15ссв359692 0.0 1013376
09:00+16ссв4585100 0.1 1013660
12:00+18ссв3574100 0.1 1014844
15:00+20ссв466753 0.1 10131090
18:00+18ссв487195 0.1 1014809
21:00+13с239298 0.1 101452
4 июля, пн
пн400:00+12с22929 0.0 101422
03:00+11сз249098 0.0 101477
06:00+15ссв3678100 0.0 1014255
09:00+20св355441 0.0 10141124
12:00+22св464224 0.0 10142090
15:00+22св464188 0.0 10142132
18:00+21св1360100 0.0 1014154
21:00+15с227657 0.0 101511
5 июля, вт
вт500:00+13ссз228298 0.0 101525
03:00+12ссз22826 0.0 101623
06:00+16ссв236930 0.0 1017161
09:00+21св23485 0.0 1017740
12:00+24св23375 0.0 10161727
15:00+24всв2238100 0.0 10161763
18:00+22вюв225769 0.0 1016116
21:00+16ююв227023 0.0 101714
6 июля, ср
ср600:00+14ю22805 0.0 101723
03:00+13ю22895 0.0 101717
06:00+17ююз23720 0.0 1017162
09:00+23ююз34500 0.0 1017788
12:00+27ююз33370 0.0 10161989
15:00+28ююз443623 0.0 10152257
18:00+24ю3757100 0.0 1015305
21:00+18ю3789100 0.3 1016131